sat.trackr.live / text

‹ back to catalog

STARLINK-6114

NORAD 56116 · 2023-046Z

PAYLOAD ACTIVE UNKNOWN

§ Identity

Operator
Country
US
Launch date
2023-03-29
Launch site
AFETR
Launch vehicle
Mass (kg)
RCS (m²)

Purposes: comms

External: N2YO · Heavens-Above · Gunter

§ Orbital elements

Epoch: 2026-05-24T23:25:48.368064Z

Period
94.27 min
Inclination
43.0031°
Eccentricity
0.0001547
Mean motion
15.27577036 rev/d
Perigee alt
482.0 km
Apogee alt
484.1 km
Semi-major
6,861.2 km
B*
1.9762e-5
RAAN
91.1548°
Arg perigee
275.0116°
Mean anomaly
85.0559°
Rev number
17,369

§ Raw data

STARLINK-61141 56116U 23046Z   26144.97625426  .00000282  00000+0  19762-4 0  99922 56116  43.0031  91.1548 0001547 275.0116  85.0559 15.27577036173690

JSON: /api/v1/satellites/56116 · /tle

For live sub-satellite position, see the globe view (requires WebGL).

§ Visibility from observer

Set your observer location to see the next 7 days of passes ≥ 10°. The values pass through the URL so the page stays shareable.

No JS? Fill the form by hand. The geolocation button needs JavaScript.